loading
|

DELTA 1 R/B, 515

Orbit data source: Space-Track

DELTA 1 R/B, 515 is space debris in HEO originally from a launch on Thu, 13 Dec 1962 UTC launched from the Air Force Eastern Test Range (AFETR). Debris objects in space refer to the collection of defunct objects orbiting the Earth. Examples of debris include non-operational satellites, rocket bodies, and fragments generated from explosions, collisions, or faulty payload assembly.

Loading next visibility...
Loading greatness...
DELTA 1 R/B details
Identifier
515, 1962-068B
Orbit
HEO
Last TLE update17 hours ago
Origin
Flag of USGSFC (US)
ManufacturerABL
Mission statusUnknown
MissionUnknown
Bus & MotorALTAIR, Unknown motor
Mass24 kg wet, 24 kg dry
Launch date (UTC)
1962-12-13 (62 years ago)
Launch vehicleUnknown
Launch site
Air Force Eastern Test Range (AFETR)
Object type
Payload
Rocket body
Debris
Radar Cross SectionMedium (>0.1 m² and <1 m²)

Expand to show TLE details & history

TLE from 17 hours ago
0 DELTA 1 R/B
1   515U 62068B   24251.04276180 -.00000017  00000-0  00000+0 0  9993
2   515  47.5142 108.7986 2834120 211.6222 127.8184  7.79243954757562
Epoch: 2024-09-07T01:01Z
Definitive object data (Epoch: 2024-09-07T01:01:34.619Z)
Latitude0.00001°
Longitude106.79774°
Altitude6,652.07 km
Speed4.91 km/s
True Right ascension07h 15m 11s
True Declination0° 00' 00"
Sunlit
Object was in daylight at TLE epoch
Predictive object data (real-time)
Latitude25.2119°
Longitude-99.53503°
Altitude2,545.503 km
Speed7.231 km/s
Apparent Right ascension19h 11m 53s
Apparent Declination-1° 31' 36"
Sunlit
Object is in daylight
Predictive observer data (real-time)
Local Sidereal Time10:12:50
Azimuth58.719° ENE
Elevation-33.847°
Doppler factor1
Orbital elements
Apogee7,415.766 km
Perigee1,323.634 km
Semi-major axis10,747.837 km
Eccentricity0.283412
Inclination47.5142°
RAAN108.7986°
Arg. of periapsis211.6222°
True anomaly148.43757°
Mean anomaly127.8184°
Eccentric anomaly138.56453°
Mean motion1.94788 °/min
BSTARUnknown
Period184.82 mins
No data available
Other satellites on launch #68 in the year 1962 (1962-12-13 UTC)

DELTA 1 R/B Visibility forecast

Observer location: 39.9160978°, -105.1181434

DELTA 1 R/B is not visible in the next 10 days
Span
Click to sort rows by Start time (UTC) header in descending order
Start Az.
Max El. time (UTC)
Max El. Az.
Max El.
End time (UTC)
End Az.